Time,TemperatureF,DewpointF,PressureIn,WindDirection,WindDirectionDegrees,WindSpeedMPH,WindSpeedGustMPH,Humidity,HourlyPrecipIn,Conditions,Clouds,dailyrainin,SoftwareType,DateUTC
2013-07-29 00:01:00,55.6,54.5,30.01,SW,219,0.0,0.0,96,0.00,,,0.00,Wunderground v.1.13,2013-07-29 04:01:00,
2013-07-29 00:02:00,55.7,54.6,30.01,SW,219,0.0,0.0,96,0.00,,,0.00,Wunderground v.1.13,2013-07-29 04:02:00,
2013-07-29 00:07:00,55.5,54.4,30.01,SW,219,0.0,0.0,96,0.00,,,0.00,Wunderground v.1.13,2013-07-29 04:07:00,
2013-07-29 00:12:00,55.2,54.1,30.01,SW,219,0.0,0.0,96,0.00,,,0.00,Wunderground v.1.13,2013-07-29 04:12:00,
2013-07-29 00:17:00,55.1,54.0,30.01,SW,219,0.0,0.0,96,0.00,,,0.00,Wunderground v.1.13,2013-07-29 04:17:00,
2013-07-29 00:22:00,55.0,53.9,30.02,SW,219,0.0,0.0,96,0.00,,,0.00,Wunderground v.1.13,2013-07-29 04:22:00,
2013-07-29 00:27:00,54.7,53.6,30.01,SW,219,0.0,0.0,96,0.00,,,0.00,Wunderground v.1.13,2013-07-29 04:27:00,
2013-07-29 00:32:00,54.5,53.4,30.01,SW,219,0.0,0.0,96,0.00,,,0.00,Wunderground v.1.13,2013-07-29 04:32:00,
2013-07-29 00:37:00,54.3,53.2,30.02,SW,219,0.0,0.0,96,0.00,,,0.00,Wunderground v.1.13,2013-07-29 04:37:00,
2013-07-29 00:42:00,54.2,53.1,30.02,SW,219,0.0,0.0,96,0.00,,,0.00,Wunderground v.1.13,2013-07-29 04:42:00,
2013-07-29 00:47:00,54.1,53.0,30.02,SW,219,0.0,0.0,96,0.00,,,0.00,Wunderground v.1.13,2013-07-29 04:47:00,
2013-07-29 00:52:00,53.9,52.8,30.02,SW,219,0.0,0.0,96,0.00,,,0.00,Wunderground v.1.13,2013-07-29 04:52:00,
2013-07-29 00:57:00,53.7,52.6,30.02,SW,219,0.0,0.0,96,0.00,,,0.00,Wunderground v.1.13,2013-07-29 04:57:00,
2013-07-29 01:03:00,53.6,52.5,30.02,SW,219,0.0,0.0,96,0.00,,,0.00,Wunderground v.1.13,2013-07-29 05:03:00,
2013-07-29 01:08:00,53.4,52.3,30.02,SW,219,0.0,0.0,96,0.00,,,0.00,Wunderground v.1.13,2013-07-29 05:08:00,
2013-07-29 01:14:00,53.4,52.3,30.02,SW,219,0.0,0.0,96,0.00,,,0.00,Wunderground v.1.13,2013-07-29 05:14:00,
2013-07-29 01:20:00,53.2,52.4,30.02,SW,219,0.0,0.0,97,0.00,,,0.00,Wunderground v.1.13,2013-07-29 05:20:00,
2013-07-29 01:26:00,53.0,52.2,30.02,SW,219,0.0,0.0,97,0.00,,,0.00,Wunderground v.1.13,2013-07-29 05:26:00,
2013-07-29 01:32:00,52.8,51.7,30.02,SW,219,0.0,0.0,96,0.00,,,0.00,Wunderground v.1.13,2013-07-29 05:32:00,
2013-07-29 01:37:00,52.7,51.6,30.02,SW,219,0.0,0.0,96,0.00,,,0.00,Wunderground v.1.13,2013-07-29 05:37:00,
2013-07-29 01:42:00,52.8,52.0,30.02,SW,219,0.0,0.0,97,0.00,,,0.00,Wunderground v.1.13,2013-07-29 05:42:00,
2013-07-29 01:48:00,52.5,51.7,30.02,SW,219,0.0,0.0,97,0.00,,,0.00,Wunderground v.1.13,2013-07-29 05:48:00,
2013-07-29 01:54:00,52.3,51.2,30.02,SW,219,0.0,0.0,96,0.00,,,0.00,Wunderground v.1.13,2013-07-29 05:54:00,
2013-07-29 02:00:00,52.2,51.4,30.02,SW,219,0.0,0.0,97,0.00,,,0.00,Wunderground v.1.13,2013-07-29 06:00:00,
2013-07-29 02:05:00,52.1,51.3,30.02,SW,219,0.0,0.0,97,0.00,,,0.00,Wunderground v.1.13,2013-07-29 06:05:00,
2013-07-29 02:11:00,52.1,51.3,30.02,SW,219,0.0,0.0,97,0.00,,,0.00,Wunderground v.1.13,2013-07-29 06:11:00,
2013-07-29 02:17:00,52.0,51.2,30.02,SW,219,0.0,0.0,97,0.00,,,0.00,Wunderground v.1.13,2013-07-29 06:17:00,
2013-07-29 02:23:00,52.0,51.2,30.02,SW,219,0.0,0.0,97,0.00,,,0.00,Wunderground v.1.13,2013-07-29 06:23:00,
2013-07-29 02:29:00,51.8,51.0,30.02,SW,219,0.0,0.0,97,0.00,,,0.00,Wunderground v.1.13,2013-07-29 06:29:00,
2013-07-29 02:35:00,51.5,50.7,30.02,SW,219,0.0,0.0,97,0.00,,,0.00,Wunderground v.1.13,2013-07-29 06:35:00,
2013-07-29 02:40:00,51.4,50.6,30.02,SW,219,0.0,0.0,97,0.00,,,0.00,Wunderground v.1.13,2013-07-29 06:40:00,
2013-07-29 02:46:00,51.4,50.6,30.02,SW,219,0.0,0.0,97,0.00,,,0.00,Wunderground v.1.13,2013-07-29 06:46:00,
2013-07-29 02:52:00,51.3,50.5,30.02,SW,219,0.0,0.0,97,0.00,,,0.00,Wunderground v.1.13,2013-07-29 06:52:00,
2013-07-29 02:58:00,51.2,50.4,30.02,SW,219,0.0,0.0,97,0.00,,,0.00,Wunderground v.1.13,2013-07-29 06:58:00,
2013-07-29 03:03:00,51.1,50.3,30.02,SW,219,0.0,0.0,97,0.00,,,0.00,Wunderground v.1.13,2013-07-29 07:03:00,
2013-07-29 03:08:00,51.0,50.2,30.03,SW,219,0.0,0.0,97,0.00,,,0.00,Wunderground v.1.13,2013-07-29 07:08:00,
2013-07-29 03:13:00,51.1,50.3,30.02,SW,219,0.0,0.0,97,0.00,,,0.00,Wunderground v.1.13,2013-07-29 07:13:00,
2013-07-29 03:18:00,50.9,50.1,30.03,SW,219,0.0,0.0,97,0.00,,,0.00,Wunderground v.1.13,2013-07-29 07:18:00,
2013-07-29 03:23:00,51.0,50.2,30.03,SW,219,0.0,0.0,97,0.00,,,0.00,Wunderground v.1.13,2013-07-29 07:23:00,
2013-07-29 03:28:00,50.7,49.9,30.03,SW,219,0.0,0.0,97,0.00,,,0.00,Wunderground v.1.13,2013-07-29 07:28:00,
2013-07-29 03:33:00,50.5,49.7,30.03,SW,219,0.0,0.0,97,0.00,,,0.00,Wunderground v.1.13,2013-07-29 07:33:00,
2013-07-29 03:38:00,50.4,49.6,30.03,SW,219,0.0,0.0,97,0.00,,,0.00,Wunderground v.1.13,2013-07-29 07:38:00,
2013-07-29 03:43:00,50.4,49.6,30.04,SW,219,0.0,0.0,97,0.00,,,0.00,Wunderground v.1.13,2013-07-29 07:43:00,
2013-07-29 03:48:00,50.4,49.6,30.03,SW,219,0.0,0.0,97,0.00,,,0.00,Wunderground v.1.13,2013-07-29 07:48:00,
2013-07-29 03:53:00,50.2,49.4,30.03,SW,219,0.0,0.0,97,0.00,,,0.00,Wunderground v.1.13,2013-07-29 07:53:00,
2013-07-29 03:58:00,50.0,49.2,30.04,SW,219,0.0,0.0,97,0.00,,,0.00,Wunderground v.1.13,2013-07-29 07:58:00,
2013-07-29 04:03:00,50.0,49.2,30.04,SW,219,0.0,0.0,97,0.00,,,0.00,Wunderground v.1.13,2013-07-29 08:03:00,
2013-07-29 04:08:00,50.0,49.2,30.03,SW,219,0.0,0.0,97,0.00,,,0.00,Wunderground v.1.13,2013-07-29 08:08:00,
2013-07-29 04:13:00,49.9,49.1,30.03,SW,219,0.0,0.0,97,0.00,,,0.00,Wunderground v.1.13,2013-07-29 08:13:00,
2013-07-29 04:18:00,49.7,48.9,30.04,SW,219,0.0,0.0,97,0.00,,,0.00,Wunderground v.1.13,2013-07-29 08:18:00,
2013-07-29 04:23:00,49.9,49.1,30.04,SW,219,0.0,0.0,97,0.00,,,0.00,Wunderground v.1.13,2013-07-29 08:23:00,
2013-07-29 04:28:00,49.9,49.1,30.04,SW,219,0.0,0.0,97,0.00,,,0.00,Wunderground v.1.13,2013-07-29 08:28:00,
2013-07-29 04:33:00,49.7,48.9,30.04,SW,219,0.0,0.0,97,0.00,,,0.00,Wunderground v.1.13,2013-07-29 08:33:00,
2013-07-29 04:38:00,49.6,48.8,30.04,SW,219,0.0,0.0,97,0.00,,,0.00,Wunderground v.1.13,2013-07-29 08:38:00,
2013-07-29 04:43:00,49.5,48.7,30.04,SW,219,0.0,0.0,97,0.00,,,0.00,Wunderground v.1.13,2013-07-29 08:43:00,
2013-07-29 04:48:00,49.6,48.8,30.04,SW,219,0.0,0.0,97,0.00,,,0.00,Wunderground v.1.13,2013-07-29 08:48:00,
2013-07-29 04:53:00,49.5,48.7,30.04,SW,219,0.0,0.0,97,0.00,,,0.00,Wunderground v.1.13,2013-07-29 08:53:00,
2013-07-29 04:58:00,49.4,48.6,30.04,SW,219,0.0,0.0,97,0.00,,,0.00,Wunderground v.1.13,2013-07-29 08:58:00,
2013-07-29 05:03:00,49.3,48.5,30.04,SW,219,0.0,0.0,97,0.00,,,0.00,Wunderground v.1.13,2013-07-29 09:03:00,
2013-07-29 05:08:00,49.2,48.4,30.04,SW,219,0.0,0.0,97,0.00,,,0.00,Wunderground v.1.13,2013-07-29 09:08:00,
2013-07-29 05:13:00,49.1,48.3,30.04,SW,219,0.0,0.0,97,0.00,,,0.00,Wunderground v.1.13,2013-07-29 09:13:00,
2013-07-29 05:18:00,48.9,48.1,30.04,SW,219,0.0,0.0,97,0.00,,,0.00,Wunderground v.1.13,2013-07-29 09:18:00,
2013-07-29 05:23:00,49.0,48.2,30.05,SW,219,0.0,0.0,97,0.00,,,0.00,Wunderground v.1.13,2013-07-29 09:23:00,
2013-07-29 05:28:00,49.1,48.3,30.05,SW,219,0.0,0.0,97,0.00,,,0.00,Wunderground v.1.13,2013-07-29 09:28:00,
2013-07-29 05:33:00,49.0,48.2,30.05,SW,219,0.0,0.0,97,0.00,,,0.00,Wunderground v.1.13,2013-07-29 09:33:00,
2013-07-29 05:38:00,49.0,48.2,30.05,SW,219,0.0,0.0,97,0.00,,,0.00,Wunderground v.1.13,2013-07-29 09:38:00,
2013-07-29 05:43:00,49.0,48.2,30.05,SW,219,0.0,0.0,97,0.00,,,0.00,Wunderground v.1.13,2013-07-29 09:43:00,
2013-07-29 05:48:00,48.8,48.0,30.05,SW,219,0.0,0.0,97,0.00,,,0.00,Wunderground v.1.13,2013-07-29 09:48:00,
2013-07-29 05:53:00,48.8,48.0,30.05,SW,219,0.0,0.0,97,0.00,,,0.00,Wunderground v.1.13,2013-07-29 09:53:00,
2013-07-29 05:58:00,48.7,47.9,30.05,SW,219,0.0,0.0,97,0.00,,,0.00,Wunderground v.1.13,2013-07-29 09:58:00,
2013-07-29 06:04:00,48.6,47.8,30.06,SW,219,0.0,0.0,97,0.00,,,0.00,Wunderground v.1.13,2013-07-29 10:04:00,
2013-07-29 06:09:00,48.7,47.9,30.06,SW,219,0.0,0.0,97,0.00,,,0.00,Wunderground v.1.13,2013-07-29 10:09:00,
2013-07-29 06:14:00,48.5,47.7,30.06,SW,219,0.0,0.0,97,0.00,,,0.00,Wunderground v.1.13,2013-07-29 10:14:00,
2013-07-29 06:19:00,48.6,47.8,30.06,SW,219,0.0,0.0,97,0.00,,,0.00,Wunderground v.1.13,2013-07-29 10:19:00,
2013-07-29 06:24:00,48.4,47.6,30.07,SW,219,0.0,0.0,97,0.00,,,0.00,Wunderground v.1.13,2013-07-29 10:24:00,
2013-07-29 06:30:00,48.3,47.5,30.07,SW,219,0.0,0.0,97,0.00,,,0.00,Wunderground v.1.13,2013-07-29 10:30:00,
2013-07-29 06:35:00,48.4,47.6,30.07,SW,219,0.0,0.0,97,0.00,,,0.00,Wunderground v.1.13,2013-07-29 10:35:00,
2013-07-29 06:40:00,48.4,47.6,30.07,SW,219,0.0,0.0,97,0.00,,,0.00,Wunderground v.1.13,2013-07-29 10:40:00,
2013-07-29 06:46:00,48.4,47.6,30.07,SW,219,0.0,0.0,97,0.00,,,0.00,Wunderground v.1.13,2013-07-29 10:46:00,
2013-07-29 06:51:00,48.5,47.7,30.07,SW,219,0.0,0.0,97,0.00,,,0.00,Wunderground v.1.13,2013-07-29 10:51:00,
2013-07-29 06:57:00,48.8,48.0,30.07,SW,219,0.0,0.0,97,0.00,,,0.00,Wunderground v.1.13,2013-07-29 10:57:00,
2013-07-29 07:02:00,49.2,48.7,30.07,SW,219,0.0,0.0,98,0.00,,,0.00,Wunderground v.1.13,2013-07-29 11:02:00,
2013-07-29 07:07:00,49.6,49.1,30.07,SW,219,0.0,0.0,98,0.00,,,0.00,Wunderground v.1.13,2013-07-29 11:07:00,
2013-07-29 07:12:00,49.7,49.2,30.07,SW,219,0.0,0.0,98,0.00,,,0.00,Wunderground v.1.13,2013-07-29 11:12:00,
2013-07-29 07:18:00,50.3,49.8,30.07,SW,219,0.0,0.0,98,0.00,,,0.00,Wunderground v.1.13,2013-07-29 11:18:00,
2013-07-29 07:23:00,50.7,50.2,30.07,SW,219,0.0,0.0,98,0.00,,,0.00,Wunderground v.1.13,2013-07-29 11:23:00,
2013-07-29 07:28:00,51.2,50.7,30.07,SW,219,0.0,0.0,98,0.00,,,0.00,Wunderground v.1.13,2013-07-29 11:28:00,
2013-07-29 07:33:00,51.8,51.3,30.07,SW,219,0.0,0.0,98,0.00,,,0.00,Wunderground v.1.13,2013-07-29 11:33:00,
2013-07-29 07:38:00,52.7,52.2,30.07,SW,219,0.0,0.0,98,0.00,,,0.00,Wunderground v.1.13,2013-07-29 11:38:00,
2013-07-29 07:43:00,53.4,52.8,30.08,SW,219,0.0,0.0,98,0.00,,,0.00,Wunderground v.1.13,2013-07-29 11:43:00,
2013-07-29 07:49:00,53.7,53.1,30.08,SW,219,0.0,0.0,98,0.00,,,0.00,Wunderground v.1.13,2013-07-29 11:49:00,
2013-07-29 07:54:00,54.1,53.5,30.08,SW,219,0.0,0.0,98,0.00,,,0.00,Wunderground v.1.13,2013-07-29 11:54:00,
2013-07-29 07:59:00,54.8,54.2,30.08,SW,219,0.0,0.0,98,0.00,,,0.00,Wunderground v.1.13,2013-07-29 11:59:00,
2013-07-29 08:04:00,55.2,54.6,30.08,SW,219,0.0,0.0,98,0.00,,,0.00,Wunderground v.1.13,2013-07-29 12:04:00,
2013-07-29 08:09:00,55.7,55.1,30.08,SW,219,0.0,0.0,98,0.00,,,0.00,Wunderground v.1.13,2013-07-29 12:09:00,
2013-07-29 08:15:00,56.3,55.7,30.08,SW,219,0.0,0.0,98,0.00,,,0.00,Wunderground v.1.13,2013-07-29 12:15:00,
2013-07-29 08:20:00,57.0,56.4,30.08,SW,219,0.0,0.0,98,0.00,,,0.00,Wunderground v.1.13,2013-07-29 12:20:00,
2013-07-29 08:25:00,57.8,57.2,30.08,SW,219,0.0,0.0,98,0.00,,,0.00,Wunderground v.1.13,2013-07-29 12:25:00,
2013-07-29 08:30:00,58.5,57.9,30.08,SW,219,0.0,0.0,98,0.00,,,0.00,Wunderground v.1.13,2013-07-29 12:30:00,
2013-07-29 08:35:00,59.0,58.2,30.08,SW,219,0.0,0.0,97,0.00,,,0.00,Wunderground v.1.13,2013-07-29 12:35:00,
2013-07-29 08:40:00,59.8,58.4,30.08,SW,219,0.0,0.0,95,0.00,,,0.00,Wunderground v.1.13,2013-07-29 12:40:00,
2013-07-29 08:45:00,60.8,58.2,30.08,SW,219,0.0,0.0,91,0.00,,,0.00,Wunderground v.1.13,2013-07-29 12:45:00,
2013-07-29 08:51:00,61.8,58.2,30.08,SW,219,0.0,0.0,88,0.00,,,0.00,Wunderground v.1.13,2013-07-29 12:51:00,
2013-07-29 08:56:00,62.3,57.7,30.08,SW,219,0.0,3.0,85,0.00,,,0.00,Wunderground v.1.13,2013-07-29 12:56:00,
2013-07-29 09:02:00,62.9,57.7,30.08,SW,219,1.0,1.0,83,0.00,,,0.00,Wunderground v.1.13,2013-07-29 13:02:00,
2013-07-29 09:07:00,63.4,57.8,30.08,SW,219,0.0,1.0,82,0.00,,,0.00,Wunderground v.1.13,2013-07-29 13:07:00,
2013-07-29 09:12:00,64.1,58.5,30.08,SW,219,0.0,0.0,82,0.00,,,0.00,Wunderground v.1.13,2013-07-29 13:12:00,
2013-07-29 09:17:00,64.5,58.2,30.08,SW,219,0.0,3.0,80,0.00,,,0.00,Wunderground v.1.13,2013-07-29 13:17:00,
2013-07-29 09:22:00,64.5,56.8,30.08,SW,217,0.0,5.0,76,0.00,,,0.00,Wunderground v.1.13,2013-07-29 13:22:00,
2013-07-29 09:28:00,65.1,57.7,30.08,SW,216,1.0,3.0,77,0.00,,,0.00,Wunderground v.1.13,2013-07-29 13:28:00,
2013-07-29 09:33:00,65.5,57.4,30.08,SW,215,2.0,3.0,75,0.00,,,0.00,Wunderground v.1.13,2013-07-29 13:33:00,
2013-07-29 09:38:00,65.7,56.8,30.08,SW,215,1.0,1.0,73,0.00,,,0.00,Wunderground v.1.13,2013-07-29 13:38:00,
2013-07-29 09:43:00,65.7,56.8,30.08,SSW,207,0.0,5.0,73,0.00,,,0.00,Wunderground v.1.13,2013-07-29 13:43:00,
2013-07-29 09:48:00,66.1,57.9,30.08,SSW,207,0.0,3.0,75,0.00,,,0.00,Wunderground v.1.13,2013-07-29 13:48:00,
2013-07-29 09:54:00,66.7,57.8,30.08,SSW,207,0.0,1.0,73,0.00,,,0.00,Wunderground v.1.13,2013-07-29 13:54:00,
2013-07-29 09:59:00,67.2,59.4,30.08,SSW,207,1.0,3.0,76,0.00,,,0.00,Wunderground v.1.13,2013-07-29 13:59:00,
2013-07-29 10:04:00,67.4,57.7,30.08,SW,214,0.0,7.0,71,0.00,,,0.00,Wunderground v.1.13,2013-07-29 14:04:00,
2013-07-29 10:09:00,67.5,57.4,30.08,SW,225,0.0,8.0,70,0.00,,,0.00,Wunderground v.1.13,2013-07-29 14:09:00,
2013-07-29 10:14:00,67.6,57.1,30.08,SW,232,4.0,7.0,69,0.00,,,0.00,Wunderground v.1.13,2013-07-29 14:14:00,
2013-07-29 10:19:00,67.7,56.8,30.08,SW,231,0.0,8.0,68,0.00,,,0.00,Wunderground v.1.13,2013-07-29 14:19:00,
2013-07-29 10:24:00,67.8,56.4,30.08,WSW,244,1.0,5.0,67,0.00,,,0.00,Wunderground v.1.13,2013-07-29 14:24:00,
2013-07-29 10:29:00,68.3,57.3,30.08,SW,236,4.0,7.0,68,0.00,,,0.00,Wunderground v.1.13,2013-07-29 14:29:00,
2013-07-29 10:34:00,68.0,57.0,30.08,SW,236,0.0,5.0,68,0.00,,,0.00,Wunderground v.1.13,2013-07-29 14:34:00,
2013-07-29 10:40:00,68.4,57.4,30.08,SW,227,0.0,2.0,68,0.00,,,0.00,Wunderground v.1.13,2013-07-29 14:40:00,
2013-07-29 10:45:00,68.6,56.8,30.08,SW,232,4.0,4.0,66,0.00,,,0.00,Wunderground v.1.13,2013-07-29 14:45:00,
2013-07-29 10:50:00,68.7,58.1,30.08,West,263,3.0,3.0,69,0.00,,,0.00,Wunderground v.1.13,2013-07-29 14:50:00,
2013-07-29 10:55:00,69.1,57.3,30.08,WSW,244,1.0,3.0,66,0.00,,,0.00,Wunderground v.1.13,2013-07-29 14:55:00,
2013-07-29 11:00:00,69.4,58.4,30.08,NW,318,1.0,3.0,68,0.00,,,0.00,Wunderground v.1.13,2013-07-29 15:00:00,
2013-07-29 11:06:00,69.8,57.5,30.08,South,188,3.0,7.0,65,0.00,,,0.00,Wunderground v.1.13,2013-07-29 15:06:00,
2013-07-29 11:11:00,69.4,56.3,30.08,WSW,246,0.0,6.0,63,0.00,,,0.00,Wunderground v.1.13,2013-07-29 15:11:00,
2013-07-29 11:16:00,68.8,55.7,30.08,SW,218,0.0,2.0,63,0.00,,,0.00,Wunderground v.1.13,2013-07-29 15:16:00,
2013-07-29 11:21:00,69.7,57.8,30.08,West,270,0.0,2.0,66,0.00,,,0.00,Wunderground v.1.13,2013-07-29 15:21:00,
2013-07-29 11:26:00,69.7,56.1,30.08,North,349,0.0,1.0,62,0.00,,,0.00,Wunderground v.1.13,2013-07-29 15:26:00,
2013-07-29 11:32:00,69.1,56.8,30.08,SW,223,2.0,5.0,65,0.00,,,0.00,Wunderground v.1.13,2013-07-29 15:32:00,
2013-07-29 11:37:00,68.6,56.8,30.08,WSW,245,7.0,7.0,66,0.00,,,0.00,Wunderground v.1.13,2013-07-29 15:37:00,
2013-07-29 11:42:00,69.2,57.4,30.08,SW,222,3.0,5.0,66,0.00,,,0.00,Wunderground v.1.13,2013-07-29 15:42:00,
2013-07-29 11:47:00,68.5,56.3,30.08,WSW,239,1.0,7.0,65,0.00,,,0.00,Wunderground v.1.13,2013-07-29 15:47:00,
2013-07-29 11:52:00,68.8,57.0,30.08,SW,236,5.0,6.0,66,0.00,,,0.00,Wunderground v.1.13,2013-07-29 15:52:00,
2013-07-29 11:57:00,69.0,55.9,30.08,SSW,211,1.0,5.0,63,0.00,,,0.00,Wunderground v.1.13,2013-07-29 15:57:00,
2013-07-29 12:03:00,69.8,57.1,30.08,SW,218,3.0,7.0,64,0.00,,,0.00,Wunderground v.1.13,2013-07-29 16:03:00,
2013-07-29 12:08:00,69.7,55.2,30.08,WSW,240,0.0,5.0,60,0.00,,,0.00,Wunderground v.1.13,2013-07-29 16:08:00,
2013-07-29 12:13:00,69.0,56.3,30.08,WSW,240,0.0,1.0,64,0.00,,,0.00,Wunderground v.1.13,2013-07-29 16:13:00,
2013-07-29 12:18:00,70.2,58.3,30.08,SW,226,1.0,4.0,66,0.00,,,0.00,Wunderground v.1.13,2013-07-29 16:18:00,
2013-07-29 12:23:00,71.6,57.0,30.08,WSW,238,0.0,10.0,60,0.00,,,0.00,Wunderground v.1.13,2013-07-29 16:23:00,
2013-07-29 12:29:00,71.7,57.5,30.08,West,271,1.0,4.0,61,0.00,,,0.00,Wunderground v.1.13,2013-07-29 16:29:00,
2013-07-29 12:34:00,71.0,54.5,30.08,WSW,237,5.0,6.0,56,0.00,,,0.00,Wunderground v.1.13,2013-07-29 16:34:00,
2013-07-29 12:39:00,70.1,55.6,30.08,WSW,238,0.0,3.0,60,0.00,,,0.00,Wunderground v.1.13,2013-07-29 16:39:00,
2013-07-29 12:45:00,69.1,57.3,30.08,SSW,198,0.0,1.0,66,0.00,,,0.00,Wunderground v.1.13,2013-07-29 16:45:00,
2013-07-29 12:50:00,68.9,56.2,30.08,SSW,213,0.0,1.0,64,0.00,,,0.00,Wunderground v.1.13,2013-07-29 16:50:00,
2013-07-29 12:55:00,69.4,55.8,30.08,SSW,213,3.0,3.0,62,0.00,,,0.00,Wunderground v.1.13,2013-07-29 16:55:00,
2013-07-29 13:00:00,69.7,56.1,30.08,SW,234,4.0,4.0,62,0.00,,,0.00,Wunderground v.1.13,2013-07-29 17:00:00,
2013-07-29 13:05:00,71.9,56.8,30.08,SSW,209,4.0,4.0,59,0.00,,,0.00,Wunderground v.1.13,2013-07-29 17:05:00,
2013-07-29 13:10:00,71.9,56.8,30.09,WSW,238,6.0,8.0,59,0.00,,,0.00,Wunderground v.1.13,2013-07-29 17:10:00,
2013-07-29 13:15:00,70.4,54.0,30.09,WSW,252,0.0,5.0,56,0.00,,,0.00,Wunderground v.1.13,2013-07-29 17:15:00,
2013-07-29 13:20:00,69.7,54.7,30.09,SW,214,0.0,3.0,59,0.00,,,0.00,Wunderground v.1.13,2013-07-29 17:20:00,
2013-07-29 13:26:00,69.4,54.9,30.09,SW,229,4.0,4.0,60,0.00,,,0.00,Wunderground v.1.13,2013-07-29 17:26:00,
2013-07-29 13:31:00,69.8,56.2,30.09,WSW,253,0.0,2.0,62,0.00,,,0.00,Wunderground v.1.13,2013-07-29 17:31:00,
2013-07-29 13:37:00,69.9,54.4,30.09,West,274,1.0,1.0,58,0.00,,,0.00,Wunderground v.1.13,2013-07-29 17:37:00,
2013-07-29 13:42:00,69.7,54.3,30.09,WSW,256,0.0,2.0,58,0.00,,,0.00,Wunderground v.1.13,2013-07-29 17:42:00,
2013-07-29 13:47:00,71.1,56.5,30.09,WSW,256,2.0,2.0,60,0.00,,,0.00,Wunderground v.1.13,2013-07-29 17:47:00,
2013-07-29 13:52:00,72.3,58.5,30.09,West,262,0.0,3.0,62,0.00,,,0.00,Wunderground v.1.13,2013-07-29 17:52:00,
2013-07-29 13:57:00,71.3,55.8,30.09,West,262,0.0,1.0,58,0.00,,,0.00,Wunderground v.1.13,2013-07-29 17:57:00,
2013-07-29 14:02:00,70.6,55.1,30.09,WSW,257,0.0,1.0,58,0.00,,,0.00,Wunderground v.1.13,2013-07-29 18:02:00,
2013-07-29 14:07:00,70.1,57.4,30.09,West,261,0.0,2.0,64,0.00,,,0.00,Wunderground v.1.13,2013-07-29 18:07:00,
2013-07-29 14:12:00,69.9,55.8,30.09,West,263,0.0,3.0,61,0.00,,,0.00,Wunderground v.1.13,2013-07-29 18:12:00,
2013-07-29 14:18:00,70.4,56.3,30.09,West,263,0.0,5.0,61,0.00,,,0.00,Wunderground v.1.13,2013-07-29 18:18:00,
2013-07-29 14:23:00,70.8,55.3,30.09,West,264,0.0,3.0,58,0.00,,,0.00,Wunderground v.1.13,2013-07-29 18:23:00,
2013-07-29 14:28:00,70.8,56.7,30.09,SW,232,0.0,5.0,61,0.00,,,0.00,Wunderground v.1.13,2013-07-29 18:28:00,
2013-07-29 14:33:00,72.1,56.5,30.09,SSW,200,1.0,5.0,58,0.00,,,0.00,Wunderground v.1.13,2013-07-29 18:33:00,
2013-07-29 14:39:00,72.4,54.3,30.09,WSW,248,0.0,4.0,53,0.00,,,0.00,Wunderground v.1.13,2013-07-29 18:39:00,
2013-07-29 14:44:00,73.1,57.4,30.09,South,175,9.0,9.0,58,0.00,,,0.00,Wunderground v.1.13,2013-07-29 18:44:00,
2013-07-29 14:49:00,73.0,56.9,30.09,SSW,199,2.0,10.0,57,0.00,,,0.00,Wunderground v.1.13,2013-07-29 18:49:00,
2013-07-29 14:54:00,72.5,55.4,30.09,SSW,211,3.0,7.0,55,0.00,,,0.00,Wunderground v.1.13,2013-07-29 18:54:00,
2013-07-29 14:59:00,72.1,57.4,30.10,SW,224,0.0,7.0,60,0.00,,,0.00,Wunderground v.1.13,2013-07-29 18:59:00,
2013-07-29 15:06:00,71.9,58.2,30.10,WSW,250,0.0,1.0,62,0.00,,,0.00,Wunderground v.1.13,2013-07-29 19:06:00,
2013-07-29 15:12:00,71.0,56.9,30.10,West,263,0.0,1.0,61,0.00,,,0.00,Wunderground v.1.13,2013-07-29 19:12:00,
2013-07-29 15:17:00,70.8,58.0,30.10,West,273,1.0,8.0,64,0.00,,,0.00,Wunderground v.1.13,2013-07-29 19:17:00,
2013-07-29 15:22:00,71.5,57.8,30.10,WNW,287,0.0,1.0,62,0.00,,,0.00,Wunderground v.1.13,2013-07-29 19:22:00,
2013-07-29 15:27:00,71.3,56.7,30.10,WNW,290,0.0,2.0,60,0.00,,,0.00,Wunderground v.1.13,2013-07-29 19:27:00,
2013-07-29 15:32:00,71.5,57.3,30.09,WNW,283,0.0,5.0,61,0.00,,,0.00,Wunderground v.1.13,2013-07-29 19:32:00,
2013-07-29 15:38:00,72.5,57.4,30.09,NNW,327,0.0,6.0,59,0.00,,,0.00,Wunderground v.1.13,2013-07-29 19:38:00,
2013-07-29 15:43:00,72.9,56.8,30.09,WNW,284,0.0,2.0,57,0.00,,,0.00,Wunderground v.1.13,2013-07-29 19:43:00,
2013-07-29 15:48:00,73.0,55.9,30.09,WSW,238,4.0,6.0,55,0.00,,,0.00,Wunderground v.1.13,2013-07-29 19:48:00,
2013-07-29 15:53:00,71.5,54.5,30.09,South,191,5.0,5.0,55,0.00,,,0.00,Wunderground v.1.13,2013-07-29 19:53:00,
2013-07-29 15:59:00,71.5,55.5,30.09,SW,220,0.0,6.0,57,0.00,,,0.00,Wunderground v.1.13,2013-07-29 19:59:00,
2013-07-29 16:04:00,72.1,57.0,30.09,SW,223,1.0,3.0,59,0.00,,,0.00,Wunderground v.1.13,2013-07-29 20:04:00,
2013-07-29 16:09:00,72.8,56.7,30.09,SW,229,0.0,5.0,57,0.00,,,0.00,Wunderground v.1.13,2013-07-29 20:09:00,
2013-07-29 16:14:00,71.6,56.0,30.09,WSW,240,0.0,9.0,58,0.00,,,0.00,Wunderground v.1.13,2013-07-29 20:14:00,
2013-07-29 16:19:00,70.7,56.1,30.09,SW,222,0.0,2.0,60,0.00,,,0.00,Wunderground v.1.13,2013-07-29 20:19:00,
2013-07-29 16:24:00,70.2,56.1,30.09,SW,223,0.0,2.0,61,0.00,,,0.00,Wunderground v.1.13,2013-07-29 20:24:00,
2013-07-29 16:29:00,70.4,56.8,30.09,SW,232,0.0,5.0,62,0.00,,,0.00,Wunderground v.1.13,2013-07-29 20:29:00,
2013-07-29 16:34:00,70.7,56.6,30.09,SW,235,0.0,3.0,61,0.00,,,0.00,Wunderground v.1.13,2013-07-29 20:34:00,
2013-07-29 16:39:00,71.1,57.9,30.09,SW,235,0.0,1.0,63,0.00,,,0.00,Wunderground v.1.13,2013-07-29 20:39:00,
2013-07-29 16:44:00,70.8,58.9,30.10,SW,235,0.0,3.0,66,0.00,,,0.00,Wunderground v.1.13,2013-07-29 20:44:00,
2013-07-29 16:49:00,70.2,57.9,30.10,SW,235,0.0,2.0,65,0.00,,,0.00,Wunderground v.1.13,2013-07-29 20:49:00,
2013-07-29 16:54:00,69.9,57.6,30.10,WSW,238,0.0,3.0,65,0.00,,,0.00,Wunderground v.1.13,2013-07-29 20:54:00,
2013-07-29 16:59:00,69.4,59.2,30.10,WSW,238,0.0,0.0,70,0.00,,,0.00,Wunderground v.1.13,2013-07-29 20:59:00,
2013-07-29 17:05:00,68.8,59.8,30.10,WSW,238,0.0,0.0,73,0.00,,,0.00,Wunderground v.1.13,2013-07-29 21:05:00,
2013-07-29 17:10:00,68.6,58.8,30.10,WSW,238,0.0,0.0,71,0.00,,,0.00,Wunderground v.1.13,2013-07-29 21:10:00,
2013-07-29 17:15:00,68.7,59.7,30.10,WSW,238,0.0,0.0,73,0.00,,,0.00,Wunderground v.1.13,2013-07-29 21:15:00,
2013-07-29 17:20:00,69.4,60.8,30.10,WSW,238,0.0,0.0,74,0.00,,,0.00,Wunderground v.1.13,2013-07-29 21:20:00,
2013-07-29 17:26:00,71.0,59.5,30.10,WSW,238,0.0,0.0,67,0.00,,,0.00,Wunderground v.1.13,2013-07-29 21:26:00,
2013-07-29 17:33:00,70.1,58.6,30.10,WSW,238,1.0,2.0,67,0.00,,,0.00,Wunderground v.1.13,2013-07-29 21:33:00,
2013-07-29 17:38:00,69.8,58.8,30.10,WSW,238,0.0,1.0,68,0.00,,,0.00,Wunderground v.1.13,2013-07-29 21:38:00,
2013-07-29 17:44:00,69.4,58.8,30.11,WSW,238,0.0,1.0,69,0.00,,,0.00,Wunderground v.1.13,2013-07-29 21:44:00,
2013-07-29 17:49:00,68.9,59.5,30.10,WSW,240,0.0,3.0,72,0.00,,,0.00,Wunderground v.1.13,2013-07-29 21:49:00,
2013-07-29 17:54:00,68.2,58.8,30.10,WSW,240,0.0,1.0,72,0.00,,,0.00,Wunderground v.1.13,2013-07-29 21:54:00,
2013-07-29 18:00:00,67.9,60.8,30.10,WSW,240,0.0,0.0,78,0.00,,,0.00,Wunderground v.1.13,2013-07-29 22:00:00,
2013-07-29 18:05:00,67.6,60.9,30.10,WSW,240,0.0,0.0,79,0.00,,,0.00,Wunderground v.1.13,2013-07-29 22:05:00,
2013-07-29 18:10:00,66.9,60.9,30.11,WSW,240,0.0,0.0,81,0.00,,,0.00,Wunderground v.1.13,2013-07-29 22:10:00,
2013-07-29 18:15:00,66.6,60.2,30.11,NNW,336,0.0,0.0,80,0.00,,,0.00,Wunderground v.1.13,2013-07-29 22:15:00,
2013-07-29 18:20:00,66.5,60.5,30.11,SW,231,0.0,0.0,81,0.00,,,0.00,Wunderground v.1.13,2013-07-29 22:20:00,
2013-07-29 18:25:00,66.3,60.3,30.11,SW,231,0.0,0.0,81,0.00,,,0.00,Wunderground v.1.13,2013-07-29 22:25:00,
2013-07-29 18:30:00,66.7,61.0,30.11,SW,231,0.0,0.0,82,0.00,,,0.00,Wunderground v.1.13,2013-07-29 22:30:00,
2013-07-29 18:36:00,68.1,58.3,30.11,SW,231,0.0,0.0,71,0.00,,,0.00,Wunderground v.1.13,2013-07-29 22:36:00,
2013-07-29 18:41:00,68.9,58.7,30.11,WSW,253,0.0,4.0,70,0.00,,,0.00,Wunderground v.1.13,2013-07-29 22:41:00,
2013-07-29 18:46:00,69.0,58.4,30.11,WSW,253,0.0,1.0,69,0.00,,,0.00,Wunderground v.1.13,2013-07-29 22:46:00,
2013-07-29 18:52:00,68.5,58.7,30.11,WSW,253,0.0,0.0,71,0.00,,,0.00,Wunderground v.1.13,2013-07-29 22:52:00,
2013-07-29 18:57:00,67.9,60.1,30.11,WSW,253,0.0,0.0,76,0.00,,,0.00,Wunderground v.1.13,2013-07-29 22:57:00,
2013-07-29 19:02:00,67.3,59.1,30.11,WSW,253,0.0,0.0,75,0.00,,,0.00,Wunderground v.1.13,2013-07-29 23:02:00,
2013-07-29 19:07:00,67.1,58.5,30.11,WSW,253,0.0,3.0,74,0.00,,,0.00,Wunderground v.1.13,2013-07-29 23:07:00,
2013-07-29 19:12:00,67.0,60.3,30.11,WSW,253,0.0,0.0,79,0.00,,,0.00,Wunderground v.1.13,2013-07-29 23:12:00,
2013-07-29 19:17:00,66.6,60.9,30.11,WSW,253,0.0,0.0,82,0.00,,,0.00,Wunderground v.1.13,2013-07-29 23:17:00,
2013-07-29 19:22:00,66.1,60.8,30.11,WSW,253,0.0,0.0,83,0.00,,,0.00,Wunderground v.1.13,2013-07-29 23:22:00,
2013-07-29 19:28:00,65.8,60.8,30.11,WSW,253,0.0,0.0,84,0.00,,,0.00,Wunderground v.1.13,2013-07-29 23:28:00,
2013-07-29 19:33:00,65.6,60.6,30.12,WSW,253,0.0,0.0,84,0.00,,,0.00,Wunderground v.1.13,2013-07-29 23:33:00,
2013-07-29 19:38:00,65.6,60.3,30.12,WSW,253,0.0,0.0,83,0.00,,,0.00,Wunderground v.1.13,2013-07-29 23:38:00,
2013-07-29 19:43:00,65.6,61.0,30.12,WSW,253,0.0,0.0,85,0.00,,,0.00,Wunderground v.1.13,2013-07-29 23:43:00,
2013-07-29 19:48:00,65.8,61.5,30.12,WSW,253,0.0,0.0,86,0.00,,,0.00,Wunderground v.1.13,2013-07-29 23:48:00,
2013-07-29 19:53:00,65.4,61.1,30.12,WSW,253,0.0,0.0,86,0.00,,,0.00,Wunderground v.1.13,2013-07-29 23:53:00,
2013-07-29 19:58:00,64.9,60.9,30.12,WSW,253,0.0,0.0,87,0.00,,,0.00,Wunderground v.1.13,2013-07-29 23:58:00,
2013-07-29 20:04:00,64.4,60.4,30.13,WSW,253,0.0,0.0,87,0.00,,,0.00,Wunderground v.1.13,2013-07-30 00:04:00,
2013-07-29 20:09:00,64.1,60.5,30.13,WSW,253,0.0,0.0,88,0.00,,,0.00,Wunderground v.1.13,2013-07-30 00:09:00,
2013-07-29 20:14:00,63.8,60.2,30.13,WSW,253,0.0,0.0,88,0.00,,,0.00,Wunderground v.1.13,2013-07-30 00:14:00,
2013-07-29 20:19:00,63.3,60.0,30.13,WSW,253,0.0,0.0,89,0.00,,,0.00,Wunderground v.1.13,2013-07-30 00:19:00,
2013-07-29 20:24:00,63.0,60.0,30.13,WSW,253,0.0,0.0,90,0.00,,,0.00,Wunderground v.1.13,2013-07-30 00:24:00,
2013-07-29 20:29:00,62.9,59.9,30.13,WSW,253,0.0,0.0,90,0.00,,,0.00,Wunderground v.1.13,2013-07-30 00:29:00,
2013-07-29 20:34:00,62.7,60.0,30.13,WSW,253,0.0,0.0,91,0.00,,,0.00,Wunderground v.1.13,2013-07-30 00:34:00,
2013-07-29 20:39:00,62.5,59.8,30.13,WSW,253,0.0,0.0,91,0.00,,,0.00,Wunderground v.1.13,2013-07-30 00:39:00,
2013-07-29 20:45:00,62.4,59.7,30.14,WSW,253,0.0,0.0,91,0.00,,,0.00,Wunderground v.1.13,2013-07-30 00:45:00,
2013-07-29 20:50:00,62.4,60.0,30.14,WSW,253,0.0,0.0,92,0.00,,,0.00,Wunderground v.1.13,2013-07-30 00:50:00,
2013-07-29 20:56:00,62.4,60.0,30.14,WSW,253,0.0,0.0,92,0.00,,,0.00,Wunderground v.1.13,2013-07-30 00:56:00,
2013-07-29 21:01:00,62.4,60.0,30.15,WSW,253,0.0,0.0,92,0.00,,,0.00,Wunderground v.1.13,2013-07-30 01:01:00,
2013-07-29 21:06:00,62.3,59.6,30.15,WSW,253,0.0,0.0,91,0.00,,,0.00,Wunderground v.1.13,2013-07-30 01:06:00,
2013-07-29 21:12:00,62.4,60.0,30.15,WSW,253,0.0,0.0,92,0.00,,,0.00,Wunderground v.1.13,2013-07-30 01:12:00,
2013-07-29 21:17:00,62.3,59.9,30.16,WSW,253,0.0,0.0,92,0.00,,,0.00,Wunderground v.1.13,2013-07-30 01:17:00,
2013-07-29 21:22:00,62.2,59.8,30.16,WSW,253,0.0,0.0,92,0.00,,,0.00,Wunderground v.1.13,2013-07-30 01:22:00,
2013-07-29 21:28:00,62.0,59.6,30.16,WSW,253,0.0,0.0,92,0.00,,,0.00,Wunderground v.1.13,2013-07-30 01:28:00,
2013-07-29 21:33:00,61.4,59.1,30.16,WSW,253,0.0,0.0,92,0.00,,,0.00,Wunderground v.1.13,2013-07-30 01:33:00,
2013-07-29 21:38:00,61.1,59.1,30.16,WSW,253,0.0,0.0,93,0.00,,,0.00,Wunderground v.1.13,2013-07-30 01:38:00,
2013-07-29 21:43:00,60.8,58.8,30.16,WSW,253,0.0,0.0,93,0.00,,,0.00,Wunderground v.1.13,2013-07-30 01:43:00,
2013-07-29 21:48:00,60.4,58.4,30.17,WSW,253,0.0,0.0,93,0.00,,,0.00,Wunderground v.1.13,2013-07-30 01:48:00,
2013-07-29 21:54:00,60.1,58.4,30.17,WSW,253,0.0,0.0,94,0.00,,,0.00,Wunderground v.1.13,2013-07-30 01:54:00,
2013-07-29 21:59:00,59.8,58.1,30.17,WSW,253,0.0,0.0,94,0.00,,,0.00,Wunderground v.1.13,2013-07-30 01:59:00,
2013-07-29 22:05:00,59.5,57.8,30.17,WSW,253,0.0,0.0,94,0.00,,,0.00,Wunderground v.1.13,2013-07-30 02:05:00,
2013-07-29 22:10:00,59.3,57.6,30.17,WSW,253,0.0,0.0,94,0.00,,,0.00,Wunderground v.1.13,2013-07-30 02:10:00,
2013-07-29 22:15:00,59.3,57.9,30.17,WSW,253,0.0,0.0,95,0.00,,,0.00,Wunderground v.1.13,2013-07-30 02:15:00,
2013-07-29 22:20:00,59.2,57.8,30.17,WSW,253,0.0,0.0,95,0.00,,,0.00,Wunderground v.1.13,2013-07-30 02:20:00,
2013-07-29 22:25:00,59.2,57.8,30.18,WSW,253,0.0,0.0,95,0.00,,,0.00,Wunderground v.1.13,2013-07-30 02:25:00,
2013-07-29 22:30:00,59.2,57.8,30.18,WSW,253,0.0,0.0,95,0.00,,,0.00,Wunderground v.1.13,2013-07-30 02:30:00,
2013-07-29 22:35:00,59.2,57.8,30.18,WSW,253,0.0,0.0,95,0.00,,,0.00,Wunderground v.1.13,2013-07-30 02:35:00,
2013-07-29 22:41:00,59.3,57.9,30.18,WSW,253,0.0,0.0,95,0.00,,,0.00,Wunderground v.1.13,2013-07-30 02:41:00,
2013-07-29 22:47:00,59.4,58.0,30.17,WSW,253,0.0,0.0,95,0.00,,,0.00,Wunderground v.1.13,2013-07-30 02:47:00,
2013-07-29 22:52:00,59.6,58.5,30.18,WSW,253,0.0,0.0,96,0.00,,,0.00,Wunderground v.1.13,2013-07-30 02:52:00,
2013-07-29 22:57:00,59.5,58.1,30.18,WSW,253,0.0,0.0,95,0.00,,,0.00,Wunderground v.1.13,2013-07-30 02:57:00,
2013-07-29 23:02:00,59.3,58.2,30.17,WSW,253,0.0,0.0,96,0.00,,,0.00,Wunderground v.1.13,2013-07-30 03:02:00,
2013-07-29 23:08:00,59.1,58.0,30.17,WSW,253,0.0,0.0,96,0.00,,,0.00,Wunderground v.1.13,2013-07-30 03:08:00,
2013-07-29 23:14:00,59.2,58.1,30.17,WSW,253,0.0,0.0,96,0.00,,,0.00,Wunderground v.1.13,2013-07-30 03:14:00,
2013-07-29 23:19:00,59.1,58.0,30.17,WSW,253,0.0,0.0,96,0.00,,,0.00,Wunderground v.1.13,2013-07-30 03:19:00,
2013-07-29 23:24:00,59.1,58.0,30.17,WSW,253,0.0,0.0,96,0.00,,,0.00,Wunderground v.1.13,2013-07-30 03:24:00,
2013-07-29 23:29:00,59.3,58.2,30.17,WSW,253,0.0,0.0,96,0.00,,,0.00,Wunderground v.1.13,2013-07-30 03:29:00,
2013-07-29 23:35:00,59.2,58.1,30.17,WSW,253,0.0,0.0,96,0.00,,,0.00,Wunderground v.1.13,2013-07-30 03:35:00,
2013-07-29 23:40:00,58.9,57.8,30.17,WSW,253,0.0,0.0,96,0.00,,,0.00,Wunderground v.1.13,2013-07-30 03:40:00,
2013-07-29 23:46:00,58.9,57.8,30.17,WSW,253,0.0,0.0,96,0.00,,,0.00,Wunderground v.1.13,2013-07-30 03:46:00,
2013-07-29 23:51:00,58.7,57.6,30.17,WSW,253,0.0,0.0,96,0.00,,,0.00,Wunderground v.1.13,2013-07-30 03:51:00,
2013-07-29 23:56:00,58.7,57.6,30.17,WSW,253,0.0,0.0,96,0.00,,,0.00,Wunderground v.1.13,2013-07-30 03:56:00,